Regional Weather Roundup
Issued by NWS

Home | Current Version | Previous Version | Text Only | Print | Product List | Glossary Off
Versions: 1 2 3 4 5 6 7 8 9 10 11 12 13 14 15 16 17 18 19 20 21 22 23 24 25 26 27

000
ASUS43 KDMX 250107
RWRIA

WEATHER ROUNDUP FOR IOWA
NATIONAL WEATHER SERVICE DES MOINES IA
800 PM CDT FRI OCT 24 2014

NOTE: "FAIR" INDICATES FEW OR NO CLOUDS BELOW 12,000 FEET WITH NO
SIGNIFICANT WEATHER AND/OR OBSTRUCTIONS TO VISIBILITY.

* - THESE STATIONS ARE NOT NWS STATIONS...THUS NOT UNDER NWS
QUALITY CONTROL.  THEY ALSO DO NOT REPORT WEATHER SUCH
AS PRECIPITATION OR FOG.

IAZ001>003-012>014-020>022-031>034-043>046-250200-
   NORTHWEST IOWA

CITY           SKY/WX    TMP DP  RH WIND       PRES   REMARKS
CARROLL *      CLEAR     55  52  88 W6        29.94R
CHEROKEE *     MOCLDY    57  48  72 CALM      29.95R
DENISON *      CLEAR     57  54  88 CALM      29.94R
LE MARS *      CLEAR     54  46  76 CALM      29.95R
ORANGE CITY *  CLEAR     66  45  45 CALM      29.95R
SHELDON *      CLEAR     55  45  67 CALM      29.93S
SIOUX CITY     PTCLDY    57  46  66 W5        29.95R
SPENCER        PTCLDY    53  43  68 W5        29.94R
STORM LAKE *   CLEAR     61  48  63 W8        29.96R
$$

IAZ055>058-069>071-079>083-090>094-250200-
   SOUTHWEST IOWA

CITY           SKY/WX    TMP DP  RH WIND       PRES   REMARKS
ATLANTIC *     CLEAR     59  57  94 CALM      29.95R FOG
AUDUBON *      CLEAR     55  50  82 CALM      29.96R
CLARINDA *     CLEAR     57  57 100 CALM      29.96R
COUNCIL BLFS * CLEAR     66  59  77 NW5       29.95R
CRESTON *      CLEAR     64  63  94 NW3       29.96R
HARLAN  *      CLEAR     57  55  94 CALM      29.99R
LAMONI         CLEAR     65  61  87 S3        29.95R
RED OAK *      PTCLDY    61  57  88 CALM      29.95R
SHENANDOAH *   CLEAR     61  59  94 CALM      29.95R
$$

IAZ047>049-059>061-072>074-084-250200-
   CENTRAL IOWA

CITY           SKY/WX    TMP DP  RH WIND       PRES   REMARKS
AMES           PTCLDY    58  56  93 CALM      29.93R FOG
ANKENY *       FOG       57  57 100 CALM      29.93R VSB 0
CHARITON *     FOG       55  55 100 NE6       29.95R VSB 1/4
DES MOINES     MOCLDY    60  58  92 S7        29.93R FOG
GRINNELL*      MOCLDY    59  57  94 S3        29.94S FOG
KNOXVILLE *    CLEAR     59  59 100 SE3       29.93S FOG
MARSHALLTOWN   PTCLDY    57  57 100 S7        29.92S FOG
PELLA *          N/A     61  59  94 S3        29.95S FOG
PERRY *          N/A     61  57  88 W6        29.93R
$$

IAZ004>006-015-016-023>025-035-036-250200-
   NORTH CENTRAL IOWA

CITY           SKY/WX    TMP DP  RH WIND       PRES   REMARKS
ALGONA *       CLEAR     59  52  77 W6        29.93R
CLARION *      CLEAR     52  52 100 CALM      29.93R
ESTHERVILLE    MOCLDY    57  38  48 W6        29.92R
FORT DODGE *   PTCLDY    55  50  82 CALM      29.94R
MASON CITY     PTCLDY    51  50  96 S5        29.92S
FOREST CITY *  CLEAR     54  54 100 CALM      29.92R
IOWA FALLS *   FOG       57  55  94 S3        29.94R VSB 1/4
$$

IAZ007>011-017>019-026>030-037>042-050>054-066-250200-
   NORTHEAST IOWA

CITY           SKY/WX    TMP DP  RH WIND       PRES   REMARKS
CEDAR RAPIDS   MOCLDY    57  57 100 S5        29.94R FOG
CHARLES CITY * FOG       59  59 100 S6        29.92S VSB 0
CLINTON *      CLOUDY    63  55  77 SW9       29.96F
DECORAH *      CLOUDY    57  57 100 VRB3      29.91S FOG
DUBUQUE        CLOUDY    59  54  83 SW5       29.93S
MONTICELLO *   CLOUDY    61  59  94 S8        29.93S
OELWEIN *      CLOUDY    59  59 100 SW8       29.93S FOG
WATERLOO       FOG       57  57 100 S3        29.92R VSB 3/4
$$

IAZ064-065-067-068-078-250200-
   EAST CENTRAL IOWA

CITY           SKY/WX    TMP DP  RH WIND       PRES   REMARKS
DAVENPORT      CLOUDY    61  57  87 SW8       29.95S
IOWA CITY      CLOUDY    59  59 100 CALM      29.96R FOG
MT. PLEASANT * MOCLDY    55  55 100 N3        29.96R FOG
MUSCATINE *    CLOUDY    61  57  88 CALM      29.96S
QUAD CITIES    CLOUDY    63  57  81 W8        29.95R
$$

IAZ062-063-075>077-085>089-095>099-250200-
   SOUTHEAST IOWA

CITY           SKY/WX    TMP DP  RH WIND       PRES   REMARKS
BURLINGTON     MOCLDY    59  56  89 N3        29.94R
FAIRFIELD *      N/A     61  57  88 CALM      29.95S
FORT MADISON * CLEAR     59  59 100 CALM      29.95S
KEOKUK *       CLEAR     63  59  88 SW3       29.94R
OSKALOOSA *    MOCLDY    61  57  88 CALM      29.95R FOG
CENTERVILLE *  CLEAR     54  54 100 CALM      29.96R FOG
OTTUMWA        MOCLDY    63  59  87 SW6       29.94S
WASHINGTON *   MOCLDY    59  59 100 CALM      29.95S FOG
$$

ABBREVIATIONS USED IN REMARKS
   TC - TEMPERATURES IN CELSIUS
  WCI - WIND CHILL INDEX
   HX - HEAT INDEX
  VSB - VISIBILITY
$$




USA.gov is the U.S. government's official web portal to all federal, state and local government web resources and services.